Weather in Bishkul

Kazakhstan     54°46′22″N   69°06′08″E
temp.,
°C
wind,
m/s
gust,
m/s
humid.,
%
clouds,
%
prec.,
mm/h
press.,
hPa
HPBL,
m
7 july, thu
thu700:00+12wnw2590100 0.1 1010175
03:00+12wnw2486100 0.0 1009116
06:00+13w2390100 0.0 1010148
09:00+15wnw2287100 0.0 1011319
12:00+15nnw3593100 0.2 1012354
15:00+16n1395100 0.1 1012215
18:00+18ne358867 0.3 1012512
21:00+17ne229017 0.4 101223
8 july, fri
fri800:00+15n1192100 0.4 101311
03:00+15ne2294100 0.0 101323
06:00+15ne349613 0.0 101476
09:00+19ene46825 0.0 1015458
12:00+22ene56663 2.2 10161044
15:00+25ne56517 0.4 10151966
18:00+24ne565928 0.4 10161918
21:00+20ne497869 0.1 1016196
9 july, sat
sat900:00+16ne35915 0.1 101774
03:00+15nne33925 0.0 101739
06:00+15nne34905 0.0 101764
09:00+20nne347066 0.0 1018343
12:00+20n2477100 0.0 1018209
15:00+26nne344997 0.0 10162115
18:00+25nne355415 0.0 10161577
21:00+20nne3472100 0.0 101768
10 july, sun
sun1000:00+20nne2376100 0.0 101757
03:00+16ne2283100 0.0 101719
06:00+17nne22846 0.0 101835
09:00+22nne34716 0.0 1018342
12:00+25nne33545 0.0 10181249
15:00+26n445392 0.0 10171289
18:00+24n346346 0.0 101786
21:00+22ne2271100 0.0 101824
11 july, mon
mon1100:00+21ne2270100 0.0 101839
03:00+20ne337288 0.0 101865
06:00+19nne34825 0.0 101984
09:00+23nne35700 0.0 1019328
12:00+27nne45570 0.0 10191111
15:00+28n445246 0.0 10191857
18:00+26n366599 0.0 1018207
21:00+23nne36778 0.1 1019137